Regional Weather Roundup
Issued by NWS

Home | Current Version | Previous Version | Graphics & Text | Print | Product List | Glossary On
Versions: 1 2 3 4 5 6 7 8 9 10 11 12 13 14 15 16 17 18 19 20 21 22 23 24 25 26 27 28 29 30 31 32 33 34 35 36 37 38 39 40 41 42 43 44 45 46 47 48 49 50
000
ASUS45 KTFX 080710
RWRMT
MONTANA REGIONAL WEATHER ROUNDUP
NATIONAL WEATHER SERVICE GREAT FALLS MT
1200 AM MST THU DEC 08 2016

NOTE: "FAIR" INDICATES FEW OR NO CLOUDS BELOW 12000 FEET WITH NO
SIGNIFICANT WEATHER AND/OR OBSTRUCTIONS TO VISIBILITY.

MTZ001>007-043-080800-
WEST OF THE DIVIDE

CITY           SKY/WX    TMP DP  RH WIND       PRES   REMARKS
KALISPELL      CLEAR      0  -4  83 NW5       30.47F
MISSOULA       MOCLDY    10   4  76 NW6       30.44F WCI   0
BUTTE          CLOUDY     5  -2  72 CALM      30.26F
MULLAN PASS    CLEAR      0  -4  83 SE10G18   30.15F WCI -16
ANACONDA         N/A      0  -6  78 SW3       30.30S
DEER LODGE       N/A      0  -6  78 W3        30.35S
EUREKA           N/A     -9 -15  77 CALM      30.54F
HAMILTON         N/A      9   3  78 CALM      30.39F
LIBBY            N/A      9   3  78 CALM      30.49R
RONAN            N/A     12   6  77 CALM      30.41F
$$

MTZ008-052>055-080800-
SOUTHWEST MONTANA

CITY           SKY/WX    TMP DP  RH WIND       PRES   REMARKS
BOZEMAN        CLOUDY     7   0  73 CALM      30.39F
DILLON         CLOUDY    -1  -5  82 SW6       30.31S WCI -13
W YELLOWSTONE  CLOUDY   -11 -17  77 CALM      30.25S HAZE
ENNIS          CLOUDY     1  -4  78 CALM      30.35F
THREE FORKS      N/A      7 -63   3 CALM      30.35F
TWIN BRIDGES     N/A      4  -6  63 MISG      30.28S
$$

MTZ009-010-012-014-046-048-049-054-080800-
EAST SLOPES AND CENTRAL MONTANA

CITY           SKY/WX    TMP DP  RH WIND       PRES   REMARKS
CUT BANK       CLEAR    -13 -18  78 NW5       30.50S
GREAT FALLS    CLOUDY     0  -7  72 E3        30.51F
MALMSTROM AFB  CLOUDY    -2  -6  83 NE3       30.54F
HELENA         CLOUDY     5  -3  69 N3        30.46F
AUGUSTA        FLURRIES  -4  -8  83 NE3       30.42F
BOWMANS CRNR   FLURRIES  -4  -7  87 NE6       30.41F WCI -16
CHOTEAU          N/A      0  -6  78 MISG      30.50S
FAIRFIELD      FLURRIES  -2  -8  74 NE3       30.48F
POWER          CLOUDY    -4 -10  77 N7        30.49F WCI -18
RAYNESFORD     MOCLDY    -9 -13  85 E3        30.47F
ULM            FLURRIES  -1  -6  78 NE1       30.52S
$$

MTZ011-013-016-021-045-047-050-051-080800-
NORTH CENTRAL MONTANA

CITY           SKY/WX    TMP DP  RH WIND       PRES   REMARKS
HAVRE          CLOUDY    -8 -13  78 S6        30.65F WCI -21
LEWISTOWN      CLOUDY   -11 -17  75 SE5       30.46F
N BAR RANCH    MOCLDY    -8 -17  65 NW3       30.44F
CHINOOK          N/A     -8 -13  77 CALM      30.68F
DENTON           N/A     -6 -11  80 SE9       30.50S WCI -23
GEYSER           N/A     -8 -13  78 SW5       30.46S
GRASS RANGE      N/A     -5  -9  81 SW9       30.45F WCI -21
JUDITH GAP     CLOUDY    -5 -10  81 NE2       30.40S
ROY              N/A     -7 -12  81 MISG      30.51S
STANFORD         N/A     -9 -13  84 W1        30.42F
WINIFRED         N/A     -7 -10  83 MISG      30.50F
$$

MTZ017>020-022>027-061-062-080800-
NORTHEAST MONTANA

CITY           SKY/WX    TMP DP  RH WIND       PRES   REMARKS
GLASGOW        PTCLDY    -4 -10  75 NW10      30.64R WCI -21
JORDAN           N/A     -7 -12  79 NW3       30.61S
SIDNEY         CLEAR     -5 -10  79 W3        30.65R
WOLF POINT     CLOUDY    -1  -9  68 W10       30.67R WCI -17
PLENTYWOOD       N/A     -2  -9  71 W14       30.56R WCI -21
POPLAR           N/A      0  -8  71 NW7       30.66S WCI -13
$$

MTZ028>42-056>058-080800-
SOUTHCENTRAL AND SOUTHEAST MONTANA

CITY           SKY/WX    TMP DP  RH WIND       PRES   REMARKS
BAKER          CLOUDY     1  -5  75 NW14      30.54S WCI -17
BILLINGS       CLEAR      2  -5  72 CALM      30.51S
LIVINGSTON     CLOUDY     5  -1  76 E7        30.38F WCI  -7
MILES CITY     CLEAR     -2  -9  72 W5        30.62S
BIG TIMBER     CLOUDY     1  -2  85 CALM      30.43F
FORSYTH          N/A      1  -6  71 CALM      30.62R
HARLOWTON      CLOUDY     1  -7  71 NE3       30.43S
LAUREL           N/A     -1 -11  63 W1        30.43S
$$

REGIONAL REPORTS...DAKOTAS

CITY           SKY/WX    TMP DP  RH WIND       PRES   REMARKS
WILLISTON      CLOUDY    -1  -8  72 W16       30.61R WCI -21
MINOT          FLURRIES   6   0  76 W28       30.48R WCI -17
DICKINSON      CLEAR     -4  -9  79 NW18      30.48S WCI -26
BEACH          CLOUDY    -2  -8  78 NW16      30.58S WCI -23
CROSBY           N/A      0  -4  85 W10       30.58S WCI -17
TIOGA          CLOUDY     0  -2  92 NW15G22   30.53R WCI -20
WATFORD CITY   CLOUDY    -2  -8  78 W13       30.59R WCI -21
BISMARCK       LGT SNOW   5   1  83 NW23G29   30.50S FOG     WCI -17
GRAND FORKS    LGT SNOW  19  15  84 NW18      30.29R FOG     WCI   4
FARGO          CLOUDY    18  12  77 NW26G33   30.28R WCI  -1
BUFFALO SD       N/A      0  -6  76 W22G29    30.43R WCI -23
RAPID CITY     CLEAR      4  -6  63 N17       30.49S WCI -16
$$

REGIONAL REPORTS...WYOMING/IDAHO/WASHINGTON

CITY           SKY/WX    TMP DP  RH WIND       PRES   REMARKS
GILLETTE       CLOUDY    -8 -11  86 W7        30.45S WCI -23
SHERIDAN       CLOUDY    -9 -14  78 CALM      30.48F
BUFFALO WY     CLOUDY    -3 -13  62 W6        30.40S WCI -15
CODY           CLOUDY    -8 -13  78 CALM      30.38F
YELLOWSTONE LA   N/A    -11 -15  82 VRB3      30.18F
IDAHO FALLS    CLOUDY     7   0  73 NE8       30.34F WCI  -6
SALMON         CLEAR      0  -4  85 CALM      30.36S
BOISE          PTCLDY    18  10  71 S10       30.35S WCI   6
SPOKANE        CLEAR     17   8  67 E9        30.39S WCI   6
$$

REGIONAL REPORTS...ALBERTA

CITY           SKY/WX    TMP DP  RH WIND       PRES   REMARKS
EDMONTON       CLOUDY   -11 -18  70 N5        30.70S
CALGARY        CRYSTALS -11 -17  77 CALM      30.53S
LETHBRIDGE     CLEAR    -18 -22  83 SW6       30.61S WCI -33
MEDICINE HAT   CLEAR    -17 -22  76 SW5       30.68S
WATERTON GATE    N/A    -29 -35  75 E1          N/A
CARDSTON         N/A    -24 -31  69 S2          N/A
MILK RIVER       N/A    -17 -22  76 NW6         N/A  WCI -31
ONEFOUR          N/A    -13 -17  84 NW9         N/A  WCI -31
$$

REGIONAL REPORTS...SASKATCHEWAN

CITY           SKY/WX    TMP DP  RH WIND       PRES   REMARKS
SWIFT CURRENT  CLOUDY    -8 -11  84 W13       30.56S WCI -28
REGINA         MOCLDY     0  -6  78 NW14      30.58R WCI -19
SASKATOON      MOCLDY    -4  -9  77 NW7       30.65S WCI -18
VAL MARIE        N/A    -11 -17  77 S2          N/A
ROCKGLEN         N/A     -6  -9  84 NW12G18     N/A  WCI -24
ASSINIBOIA       N/A     -9 -15  77 NW5         N/A
$$



USA.gov is the U.S. government's official web portal to all federal, state and local government web resources and services.